Time,TemperatureF,DewpointF,PressureIn,WindDirection,WindDirectionDegrees,WindSpeedMPH,WindSpeedGustMPH,Humidity,HourlyPrecipIn,Conditions,Clouds,dailyrainin,SoftwareType,DateUTC
2013-04-22 00:02:00,35.0,32.0,-100.00,North,350,11.0,18.0,85,0.00,,,0.00,,2013-04-22 05:02:00,
2013-04-22 00:12:00,35.0,30.0,-100.00,NNW,345,9.0,16.0,84,0.00,,,0.00,,2013-04-22 05:12:00,
2013-04-22 00:22:00,35.0,30.0,-100.00,NNW,345,12.0,17.0,83,0.00,,,0.00,,2013-04-22 05:22:00,
2013-04-22 00:32:00,35.0,30.0,-100.00,North,350,9.0,17.0,83,0.00,,,0.00,,2013-04-22 05:32:00,
2013-04-22 00:42:00,35.0,30.0,-100.00,North,355,14.0,17.0,82,0.00,,,0.00,,2013-04-22 05:42:00,
2013-04-22 00:52:00,35.0,30.0,-100.00,North,0,13.0,17.0,81,0.00,,,0.00,,2013-04-22 05:52:00,
2013-04-22 01:02:00,35.0,28.0,-100.00,NNW,345,9.0,17.0,79,0.00,,,0.00,,2013-04-22 06:02:00,
2013-04-22 01:12:00,35.0,28.0,-100.00,North,350,9.0,17.0,79,0.00,,,0.00,,2013-04-22 06:12:00,
2013-04-22 01:21:00,35.0,28.0,-100.00,NNW,340,12.0,15.0,79,0.00,,,0.00,,2013-04-22 06:21:00,
2013-04-22 01:32:00,35.0,28.0,-100.00,NNW,340,7.0,15.0,79,0.00,,,0.00,,2013-04-22 06:32:00,
2013-04-22 01:42:00,34.0,28.0,-100.00,NNW,340,9.0,15.0,79,0.00,,,0.00,,2013-04-22 06:42:00,
2013-04-22 01:51:00,34.0,28.0,-100.00,NNW,345,9.0,13.0,79,0.00,,,0.00,,2013-04-22 06:51:00,
2013-04-22 02:01:00,34.0,28.0,-100.00,NNW,340,8.0,14.0,79,0.00,,,0.00,,2013-04-22 07:01:00,
2013-04-22 02:11:00,34.0,28.0,-100.00,North,0,12.0,14.0,79,0.00,,,0.00,,2013-04-22 07:11:00,
2013-04-22 02:21:00,34.0,28.0,-100.00,NNW,330,7.0,12.0,79,0.00,,,0.00,,2013-04-22 07:21:00,
2013-04-22 02:32:00,34.0,28.0,-100.00,NNW,345,7.0,11.0,79,0.00,,,0.00,,2013-04-22 07:32:00,
2013-04-22 02:42:00,34.0,28.0,-100.00,NNW,345,9.0,13.0,79,0.00,,,0.00,,2013-04-22 07:42:00,
2013-04-22 02:52:00,33.0,28.0,-100.00,North,0,9.0,13.0,80,0.00,,,0.00,,2013-04-22 07:52:00,
2013-04-22 03:02:00,33.0,28.0,-100.00,NNW,345,7.0,12.0,80,0.00,,,0.00,,2013-04-22 08:02:00,
2013-04-22 03:11:00,33.0,27.0,-100.00,North,350,9.0,12.0,79,0.00,,,0.00,,2013-04-22 08:11:00,
2013-04-22 03:22:00,33.0,27.0,-100.00,NNW,335,9.0,11.0,79,0.00,,,0.00,,2013-04-22 08:22:00,
2013-04-22 03:32:00,33.0,27.0,-100.00,North,0,6.0,10.0,79,0.00,,,0.00,,2013-04-22 08:32:00,
2013-04-22 03:42:00,33.0,27.0,-100.00,North,0,8.0,12.0,80,0.00,,,0.00,,2013-04-22 08:42:00,
2013-04-22 03:52:00,33.0,27.0,-100.00,North,355,8.0,12.0,80,0.00,,,0.00,,2013-04-22 08:52:00,
2013-04-22 04:01:00,33.0,27.0,-100.00,North,350,7.0,10.0,80,0.00,,,0.00,,2013-04-22 09:01:00,
2013-04-22 04:11:00,32.0,27.0,-100.00,North,350,5.0,7.0,80,0.00,,,0.00,,2013-04-22 09:11:00,
2013-04-22 04:21:00,32.0,27.0,-100.00,North,0,5.0,6.0,80,0.00,,,0.00,,2013-04-22 09:21:00,
2013-04-22 04:33:00,32.0,27.0,-100.00,NNW,345,2.0,8.0,81,0.00,,,0.00,,2013-04-22 09:33:00,
2013-04-22 04:42:00,32.0,27.0,-100.00,NNW,340,2.0,4.0,82,0.00,,,0.00,,2013-04-22 09:42:00,
2013-04-22 04:52:00,31.0,27.0,-100.00,NW,305,2.0,4.0,82,0.00,,,0.00,,2013-04-22 09:52:00,
2013-04-22 05:03:00,31.0,27.0,-100.00,WNW,285,4.0,4.0,82,0.00,,,0.00,,2013-04-22 10:03:00,
2013-04-22 05:12:00,31.0,27.0,-100.00,NW,320,4.0,5.0,83,0.00,,,0.00,,2013-04-22 10:12:00,
2013-04-22 05:22:00,32.0,28.0,-100.00,NNW,335,7.0,9.0,84,0.00,,,0.00,,2013-04-22 10:22:00,
2013-04-22 05:32:00,31.0,27.0,-100.00,North,350,7.0,9.0,84,0.00,,,0.00,,2013-04-22 10:32:00,
2013-04-22 05:42:00,31.0,27.0,-100.00,North,0,9.0,12.0,85,0.00,,,0.00,,2013-04-22 10:42:00,
2013-04-22 05:52:00,31.0,27.0,-100.00,North,0,9.0,11.0,85,0.00,,,0.00,,2013-04-22 10:52:00,
2013-04-22 06:02:00,31.0,27.0,-100.00,North,0,7.0,11.0,85,0.00,,,0.00,,2013-04-22 11:02:00,
2013-04-22 06:12:00,30.0,27.0,-100.00,North,0,7.0,10.0,86,0.00,,,0.00,,2013-04-22 11:12:00,
2013-04-22 06:22:00,30.0,27.0,-100.00,North,0,7.0,11.0,87,0.00,,,0.00,,2013-04-22 11:22:00,
2013-04-22 06:32:00,30.0,27.0,-100.00,NNW,345,6.0,8.0,88,0.00,,,0.00,,2013-04-22 11:32:00,
2013-04-22 06:42:00,30.0,27.0,-100.00,NNW,345,6.0,7.0,88,0.00,,,0.00,,2013-04-22 11:42:00,
2013-04-22 06:52:00,30.0,27.0,-100.00,NNW,340,5.0,8.0,88,0.00,,,0.00,,2013-04-22 11:52:00,
2013-04-22 07:02:00,30.0,27.0,-100.00,North,0,4.0,6.0,88,0.00,,,0.00,,2013-04-22 12:02:00,
2013-04-22 07:12:00,30.0,27.0,-100.00,North,5,4.0,6.0,89,0.00,,,0.00,,2013-04-22 12:12:00,
2013-04-22 07:21:00,30.0,27.0,-100.00,North,0,6.0,7.0,89,0.00,,,0.00,,2013-04-22 12:21:00,
2013-04-22 07:32:00,30.0,27.0,-100.00,North,0,4.0,6.0,89,0.00,,,0.00,,2013-04-22 12:32:00,
2013-04-22 07:42:00,30.0,27.0,-100.00,North,10,6.0,7.0,89,0.00,,,0.00,,2013-04-22 12:42:00,
2013-04-22 07:52:00,30.0,27.0,-100.00,North,5,10.0,12.0,89,0.00,,,0.00,,2013-04-22 12:52:00,
2013-04-22 08:01:00,30.0,27.0,-100.00,North,0,7.0,12.0,89,0.00,,,0.00,,2013-04-22 13:01:00,
2013-04-22 08:11:00,30.0,27.0,-100.00,North,0,9.0,11.0,89,0.00,,,0.00,,2013-04-22 13:11:00,
2013-04-22 08:22:00,30.0,27.0,-100.00,North,10,7.0,11.0,89,0.00,,,0.00,,2013-04-22 13:22:00,
2013-04-22 08:31:00,31.0,28.0,-100.00,North,0,9.0,14.0,89,0.00,,,0.00,,2013-04-22 13:31:00,
2013-04-22 08:41:00,31.0,28.0,-100.00,North,5,9.0,13.0,89,0.00,,,0.00,,2013-04-22 13:41:00,
2013-04-22 08:52:00,31.0,28.0,-100.00,North,5,12.0,17.0,88,0.00,,,0.00,,2013-04-22 13:52:00,
2013-04-22 09:02:00,31.0,28.0,-100.00,North,5,11.0,13.0,87,0.00,,,0.00,,2013-04-22 14:02:00,
2013-04-22 09:11:00,32.0,28.0,-100.00,NNE,15,12.0,16.0,86,0.00,,,0.00,,2013-04-22 14:11:00,
2013-04-22 09:21:00,32.0,28.0,-100.00,NNE,20,11.0,16.0,85,0.00,,,0.00,,2013-04-22 14:21:00,
2013-04-22 09:33:00,32.0,28.0,-100.00,NNE,20,9.0,16.0,84,0.00,,,0.00,,2013-04-22 14:33:00,
2013-04-22 09:42:00,33.0,28.0,-100.00,NNE,20,11.0,14.0,84,0.00,,,0.00,,2013-04-22 14:42:00,
2013-04-22 09:51:00,33.0,28.0,-100.00,North,10,11.0,15.0,83,0.00,,,0.00,,2013-04-22 14:51:00,
2013-04-22 10:01:00,33.0,28.0,-100.00,NNE,15,10.0,14.0,83,0.00,,,0.00,,2013-04-22 15:01:00,
2013-04-22 10:11:00,33.0,28.0,-100.00,North,5,9.0,12.0,82,0.00,,,0.00,,2013-04-22 15:11:00,
2013-04-22 10:22:00,33.0,28.0,-100.00,North,5,9.0,13.0,81,0.00,,,0.00,,2013-04-22 15:22:00,
2013-04-22 10:33:00,33.0,28.0,-100.00,North,5,10.0,14.0,80,0.00,,,0.00,,2013-04-22 15:33:00,
2013-04-22 10:42:00,33.0,27.0,-100.00,North,0,9.0,13.0,78,0.00,,,0.00,,2013-04-22 15:42:00,
2013-04-22 10:53:00,33.0,27.0,-100.00,North,0,9.0,13.0,77,0.00,,,0.00,,2013-04-22 15:53:00,
2013-04-22 11:02:00,33.0,27.0,-100.00,NNE,20,8.0,12.0,76,0.00,,,0.00,,2013-04-22 16:02:00,
2013-04-22 11:12:00,34.0,27.0,-100.00,North,0,8.0,10.0,76,0.00,,,0.00,,2013-04-22 16:12:00,
2013-04-22 11:23:00,34.0,27.0,-100.00,North,0,10.0,13.0,73,0.00,,,0.00,,2013-04-22 16:23:00,
2013-04-22 11:33:00,34.0,25.0,-100.00,North,5,11.0,15.0,72,0.00,,,0.00,,2013-04-22 16:33:00,
2013-04-22 11:42:00,34.0,25.0,-100.00,NNE,15,11.0,14.0,70,0.00,,,0.00,,2013-04-22 16:42:00,
2013-04-22 11:52:00,35.0,27.0,-100.00,North,5,11.0,15.0,68,0.00,,,0.00,,2013-04-22 16:52:00,
2013-04-22 12:02:00,35.0,25.0,-100.00,North,5,12.0,17.0,66,0.00,,,0.00,,2013-04-22 17:02:00,
2013-04-22 12:12:00,35.0,25.0,-100.00,NNE,25,12.0,15.0,64,0.00,,,0.00,,2013-04-22 17:12:00,
2013-04-22 12:22:00,35.0,25.0,-100.00,NNE,20,12.0,16.0,63,0.00,,,0.00,,2013-04-22 17:22:00,
2013-04-22 12:31:00,36.0,25.0,-100.00,NNE,25,12.0,17.0,63,0.00,,,0.00,,2013-04-22 17:31:00,
2013-04-22 12:42:00,36.0,25.0,-100.00,NNE,15,12.0,16.0,62,0.00,,,0.00,,2013-04-22 17:42:00,
2013-04-22 12:52:00,36.0,25.0,-100.00,NNE,15,10.0,17.0,61,0.00,,,0.00,,2013-04-22 17:52:00,
2013-04-22 13:01:00,36.0,23.0,-100.00,North,10,10.0,16.0,60,0.00,,,0.00,,2013-04-22 18:01:00,
2013-04-22 13:12:00,36.0,23.0,-100.00,NNE,20,12.0,17.0,60,0.00,,,0.00,,2013-04-22 18:12:00,
2013-04-22 13:21:00,36.0,23.0,-100.00,North,0,15.0,19.0,60,0.00,,,0.00,,2013-04-22 18:21:00,
2013-04-22 13:32:00,35.0,23.0,-100.00,North,5,19.0,22.0,60,0.00,,,0.00,,2013-04-22 18:32:00,
2013-04-22 13:42:00,35.0,23.0,-100.00,North,10,16.0,22.0,60,0.00,,,0.00,,2013-04-22 18:42:00,
2013-04-22 13:52:00,35.0,23.0,-100.00,North,0,15.0,20.0,60,0.00,,,0.00,,2013-04-22 18:52:00,
2013-04-22 14:01:00,35.0,23.0,-100.00,North,0,12.0,19.0,62,0.00,,,0.00,,2013-04-22 19:01:00,
2013-04-22 14:12:00,35.0,23.0,-100.00,North,0,14.0,21.0,65,0.00,,,0.00,,2013-04-22 19:12:00,
2013-04-22 14:21:00,34.0,25.0,-100.00,NNE,25,13.0,20.0,68,0.00,,,0.00,,2013-04-22 19:21:00,
2013-04-22 14:32:00,33.0,25.0,-100.00,North,5,17.0,22.0,72,0.00,,,0.00,,2013-04-22 19:32:00,
2013-04-22 14:42:00,32.0,27.0,-100.00,NNE,20,13.0,21.0,80,0.00,,,0.00,,2013-04-22 19:42:00,
2013-04-22 14:52:00,32.0,28.0,-100.00,NNE,20,11.0,16.0,86,0.00,,,0.00,,2013-04-22 19:52:00,
2013-04-22 15:02:00,31.0,28.0,-100.00,NNE,20,11.0,14.0,91,0.00,,,0.00,,2013-04-22 20:02:00,
2013-04-22 15:11:00,31.0,28.0,-100.00,NNE,20,11.0,14.0,92,0.00,,,0.00,,2013-04-22 20:11:00,
2013-04-22 15:22:00,31.0,30.0,-100.00,North,10,10.0,13.0,95,0.01,,,0.00,,2013-04-22 20:22:00,
2013-04-22 15:32:00,31.0,30.0,-100.00,NNE,25,10.0,15.0,96,0.01,,,0.00,,2013-04-22 20:32:00,
2013-04-22 15:42:00,31.0,30.0,-100.00,NNE,15,10.0,14.0,97,0.01,,,0.01,,2013-04-22 20:42:00,
2013-04-22 15:51:00,31.0,30.0,-100.00,NNE,20,9.0,16.0,98,0.02,,,0.01,,2013-04-22 20:51:00,
2013-04-22 16:02:00,31.0,30.0,-100.00,NNE,15,11.0,15.0,98,0.01,,,0.01,,2013-04-22 21:02:00,
2013-04-22 16:11:00,31.0,30.0,-100.00,North,10,10.0,14.0,99,0.00,,,0.01,,2013-04-22 21:11:00,
2013-04-22 16:21:00,31.0,30.0,-100.00,North,10,9.0,11.0,99,0.00,,,0.01,,2013-04-22 21:21:00,
2013-04-22 16:32:00,31.0,30.0,-100.00,North,0,9.0,12.0,99,0.00,,,0.01,,2013-04-22 21:32:00,
2013-04-22 16:42:00,31.0,30.0,-100.00,North,0,9.0,12.0,99,0.00,,,0.01,,2013-04-22 21:42:00,
2013-04-22 16:53:00,31.0,30.0,-100.00,North,0,11.0,16.0,99,0.00,,,0.01,,2013-04-22 21:53:00,
2013-04-22 17:02:00,31.0,30.0,-100.00,North,5,9.0,12.0,99,0.00,,,0.01,,2013-04-22 22:02:00,
2013-04-22 17:12:00,31.0,30.0,-100.00,North,0,9.0,12.0,99,0.00,,,0.01,,2013-04-22 22:12:00,
2013-04-22 17:22:00,31.0,30.0,-100.00,North,5,6.0,11.0,99,0.00,,,0.01,,2013-04-22 22:22:00,
2013-04-22 17:33:00,31.0,30.0,-100.00,North,0,8.0,10.0,99,0.00,,,0.01,,2013-04-22 22:33:00,
2013-04-22 17:42:00,31.0,30.0,-100.00,North,0,9.0,11.0,99,0.00,,,0.01,,2013-04-22 22:42:00,
2013-04-22 17:52:00,31.0,30.0,-100.00,North,0,8.0,12.0,99,0.00,,,0.01,,2013-04-22 22:52:00,
2013-04-22 18:21:00,31.0,30.0,-100.00,North,0,12.0,17.0,99,0.00,,,0.01,,2013-04-22 23:21:00,
2013-04-22 18:32:00,31.0,30.0,-100.00,North,5,10.0,14.0,99,0.00,,,0.01,,2013-04-22 23:32:00,
2013-04-22 18:42:00,31.0,30.0,-100.00,North,5,12.0,15.0,99,0.00,,,0.01,,2013-04-22 23:42:00,
2013-04-22 18:52:00,31.0,30.0,-100.00,North,5,11.0,16.0,99,0.00,,,0.01,,2013-04-22 23:52:00,
2013-04-22 19:02:00,31.0,30.0,-100.00,North,0,9.0,14.0,99,0.00,,,0.01,,2013-04-23 00:02:00,
2013-04-22 19:12:00,31.0,30.0,-100.00,North,0,9.0,12.0,99,0.00,,,0.01,,2013-04-23 00:12:00,
2013-04-22 19:21:00,31.0,30.0,-100.00,North,0,11.0,14.0,99,0.00,,,0.01,,2013-04-23 00:21:00,
2013-04-22 19:31:00,31.0,30.0,-100.00,North,0,9.0,11.0,99,0.00,,,0.01,,2013-04-23 00:31:00,
2013-04-22 19:42:00,31.0,30.0,-100.00,North,0,9.0,12.0,99,0.00,,,0.01,,2013-04-23 00:42:00,
2013-04-22 19:51:00,30.0,30.0,-100.00,North,0,7.0,12.0,99,0.00,,,0.01,,2013-04-23 00:51:00,
2013-04-22 20:01:00,30.0,30.0,-100.00,North,5,7.0,9.0,99,0.00,,,0.01,,2013-04-23 01:01:00,
2013-04-22 20:11:00,30.0,30.0,-100.00,North,0,7.0,10.0,99,0.00,,,0.01,,2013-04-23 01:11:00,
2013-04-22 20:21:00,30.0,30.0,-100.00,North,5,7.0,11.0,99,0.00,,,0.01,,2013-04-23 01:21:00,
2013-04-22 20:32:00,30.0,30.0,-100.00,North,0,6.0,9.0,99,0.00,,,0.01,,2013-04-23 01:32:00,
2013-04-22 21:01:00,30.0,30.0,-100.00,NW,325,3.0,5.0,99,0.00,,,0.01,,2013-04-23 02:01:00,
2013-04-22 21:12:00,30.0,30.0,-100.00,NW,305,4.0,5.0,99,0.00,,,0.01,,2013-04-23 02:12:00,
2013-04-22 21:52:00,29.0,28.0,-100.00,NNW,330,7.0,10.0,98,0.00,,,0.01,,2013-04-23 02:52:00,
2013-04-22 22:01:00,29.0,28.0,-100.00,NNW,335,8.0,11.0,96,0.00,,,0.01,,2013-04-23 03:01:00,
2013-04-22 22:11:00,29.0,27.0,-100.00,NNW,345,9.0,12.0,93,0.00,,,0.01,,2013-04-23 03:11:00,
2013-04-22 22:21:00,29.0,27.0,-100.00,NNW,345,8.0,12.0,91,0.00,,,0.01,,2013-04-23 03:21:00,
2013-04-22 22:33:00,29.0,27.0,-100.00,NNW,345,8.0,12.0,89,0.00,,,0.01,,2013-04-23 03:33:00,
2013-04-22 22:43:00,30.0,27.0,-100.00,NNW,345,10.0,12.0,87,0.00,,,0.01,,2013-04-23 03:43:00,
2013-04-22 22:52:00,30.0,27.0,-100.00,NNW,340,10.0,13.0,85,0.00,,,0.01,,2013-04-23 03:52:00,
2013-04-22 23:03:00,30.0,25.0,-100.00,NNW,345,9.0,16.0,84,0.00,,,0.01,,2013-04-23 04:03:00,
2013-04-22 23:12:00,30.0,25.0,-100.00,NNW,340,10.0,14.0,83,0.00,,,0.01,,2013-04-23 04:12:00,
2013-04-22 23:23:00,30.0,25.0,-100.00,NNW,340,11.0,14.0,83,0.00,,,0.01,,2013-04-23 04:23:00,
2013-04-22 23:33:00,29.0,25.0,-100.00,NNW,335,11.0,16.0,82,0.00,,,0.01,,2013-04-23 04:33:00,
2013-04-22 23:43:00,29.0,25.0,-100.00,NNW,345,11.0,15.0,82,0.00,,,0.01,,2013-04-23 04:43:00,
2013-04-22 23:52:00,29.0,25.0,-100.00,NNW,345,10.0,15.0,82,0.00,,,0.01,,2013-04-23 04:52:00,